Regional Weather Roundup
Issued by NWS

Home | Current Version | Previous Version | Text Only | Print | Product List | Glossary Off
Versions: 1 2 3 4 5 6 7 8 9 10 11 12 13 14 15 16 17 18 19 20 21 22 23 24 25 26 27 28 29 30 31 32 33 34 35 36 37 38 39 40 41 42 43 44 45 46 47 48 49 50

000
ASUS43 KMKX 191221
RWRWI

WISCONSIN REGIONAL WEATHER ROUNDUP
NATIONAL WEATHER SERVICE MILWAUKEE/SULLIVAN WI
700 AM CDT SUN APR 19 2015

NOTE: "FAIR" INDICATES FEW OR NO CLOUDS BELOW 12,000 FEET WITH NO
SIGNIFICANT WEATHER AND/OR OBSTRUCTIONS TO VISIBILITY.

WIZ001-002-006>008-014>016-023>028-191300-
NORTHWEST WISCONSIN

CITY           SKY/WX    TMP DP  RH WIND       PRES   REMARKS
SUPERIOR ARPT  LGT RAIN  37  36  96 NE9       29.81F WCI  30
6HR MIN TEMP:  36; 6HR MAX TEMP:  38; 6HR PCP:  0.15;

ASHLAND        LGT RAIN  41  39  93 E5        29.83F
6HR MIN TEMP:  37; 6HR MAX TEMP:  41; 6HR PCP:  0.15;

HAYWARD        LGT RAIN  43  37  79 VRB6      29.80F
6HR MIN TEMP:  43; 6HR MAX TEMP:  54; 6HR PCP:  0.14;

SIREN          LGT RAIN  45  37  73 SE8       29.77S
6HR MIN TEMP:  44; 6HR MAX TEMP:  52; 6HR PCP:  0.09;

CUMBERLAND     LGT RAIN  41  34  75 SE12G17   29.79R
RICE LAKE      LGT RAIN  44  36  73 SE10G16   29.81S
6HR MIN TEMP:  43; 6HR MAX TEMP:  47; 6HR PCP:  0.05;

CHETEK         CLOUDY    46  35  65 E8        29.80F
6HR MIN TEMP:  44; 6HR MAX TEMP:  49; 6HR PCP:  0.04;

LADYSMITH      CLOUDY    45  35  67 SE6       29.83F
6HR MIN TEMP:  44; 6HR MAX TEMP:  53; 6HR PCP:  0.06;

EAU CLAIRE     CLOUDY    46  33  60 E9        29.80F
6HR MIN TEMP:  45; 6HR MAX TEMP:  50; 6HR PCP:  0.01;

MENOMONIE      CLOUDY    46  35  66 E10       29.79F
6HR MIN TEMP:  46; 6HR MAX TEMP:  49; 6HR PCP:  0.03;

NEW RICHMOND   LGT RAIN  43  38  82 SE7       29.77S
6HR MIN TEMP:  43; 6HR MAX TEMP:  47; 6HR PCP:  0.06;

OSCEOLA        RAIN      44  40  85 SE7       29.79F
6HR MIN TEMP:  44; 6HR MAX TEMP:  48; 6HR PCP:  0.08;

$$

WIZ003>005-009-010-017-018-191300-
NORTH CENTRAL WISCONSIN

CITY           SKY/WX    TMP DP  RH WIND       PRES   REMARKS
MANITOWISH WTR CLOUDY    39  32  75 SE8G18    29.86F WCI  34
6HR MIN TEMP:  39; 6HR MAX TEMP:  47; 6HR PCP:  0.02;

ARBOR VITAE    DRIZZLE   42  35  76 SE9       29.87F
6HR MIN TEMP:  42; 6HR MAX TEMP:  49; 6HR PCP:  0.05;

WOODRUFF       DRIZZLE   42  35  76 SE9       29.87F
6HR MIN TEMP:  42; 6HR MAX TEMP:  49; 6HR PCP:  0.05;

RHINELANDER    CLOUDY    45  20  36 E8        29.90F
6HR MIN TEMP:  43; 6HR MAX TEMP:  46; 6HR PCP: TRACE;

EAGLE RIVER    CLOUDY    43  20  40 SE15G21   29.88F
6HR MIN TEMP:  41; 6HR MAX TEMP:  44;

LAND O LAKES   CLOUDY    42  25  50 SE7       29.92F
6HR MIN TEMP:  41; 6HR MAX TEMP:  44;

PHILLIPS       CLOUDY    42  32  68 SE9       29.83F
6HR MIN TEMP:  40; 6HR MAX TEMP:  49; 6HR PCP:  0.09;

TOMAHAWK       CLOUDY    45  22  40 CALM      29.89F
6HR MIN TEMP:  43; 6HR MAX TEMP:  48;

MEDFORD        CLOUDY    44  28  53 E12G17    29.84F
6HR MIN TEMP:  40; 6HR MAX TEMP:  47; 6HR PCP:  0.07;

MERRILL        CLOUDY    46  24  43 SE9G16    29.89S
6HR MIN TEMP:  46; 6HR MAX TEMP:  47;

$$

WIZ029-030-035-036-043>047-191300-
CENTRAL WISCONSIN

CITY           SKY/WX    TMP DP  RH WIND       PRES   REMARKS
WAUSAU         CLOUDY    45  25  45 SE12      29.88S
6HR MIN TEMP:  45; 6HR MAX TEMP:  48;

MOSINEE        MOCLDY    45  25  45 E13G20    29.89F
MARSHFIELD     CLOUDY    46  28  49 E10       29.85F
6HR MIN TEMP:  44; 6HR MAX TEMP:  48; 6HR PCP: TRACE;

STEVENS POINT  CLOUDY    44  27  50 E10       29.89F
6HR MIN TEMP:  43; 6HR MAX TEMP:  45;

WAUPACA        CLOUDY    49  30  47 E12G17    29.91S
6HR MIN TEMP:  47; 6HR MAX TEMP:  50;

WAUTOMA        CLOUDY    48  28  46 E5        29.90S
6HR MIN TEMP:  45; 6HR MAX TEMP:  49;

WISC RAPIDS    CLOUDY    47  24  40 E8        29.88S
6HR MIN TEMP:  47; 6HR MAX TEMP:  49;

CAMP DOUGLAS   MOCLDY    48  32  54 E10       29.84S
6HR MIN TEMP:  44; 6HR MAX TEMP:  50; 6HR PCP: TRACE;

$$

WIZ011>013-019>022-031-037>040-048>050-191300-
NORTHEAST WISCONSIN

CITY           SKY/WX    TMP DP  RH WIND       PRES   REMARKS
ANTIGO         CLOUDY    42  25  52 SE20G26   29.91F
SHAWANO        CLOUDY    46  30  52 E8        29.95F
6HR MIN TEMP:  44; 6HR MAX TEMP:  46;

OCONTO         CLOUDY    44  30  57 E7        29.97F
6HR MIN TEMP:  39; 6HR MAX TEMP:  44;

STURGEON BAY   PTCLDY    43  28  56 SE9       29.99F
6HR MIN TEMP:  41; 6HR MAX TEMP:  45;

GREEN BAY      CLOUDY    47  31  53 SE9       29.95F
6HR MIN TEMP:  42; 6HR MAX TEMP:  49;

MANITOWOC      MOCLDY    41  33  73 E5        29.97F
6HR MIN TEMP:  39; 6HR MAX TEMP:  42;

APPLETON       CLOUDY    46  28  49 SE14G22   29.92F
CLINTONVILLE   CLOUDY    45  27  49 E9        29.93F
OSHKOSH        CLOUDY    49  30  48 SE16      29.89F
6HR MIN TEMP:  48; 6HR MAX TEMP:  51;

$$

WIZ032>034-041-042-053>061-191300-
SOUTHWEST WISCONSIN

CITY           SKY/WX    TMP DP  RH WIND       PRES   REMARKS
LA CROSSE      CLOUDY    52  34  50 E9        29.79F
6HR MIN TEMP:  50; 6HR MAX TEMP:  59; 6HR PCP: TRACE;

SPARTA         CLOUDY    48  33  56 CALM      29.83S
6HR MIN TEMP:  44; 6HR MAX TEMP:  49; 6HR PCP:  0.01;

VIROQUA        CLOUDY    51  33  50 SE13      29.81F
6HR MIN TEMP:  48; 6HR MAX TEMP:  53;

BOSCOBEL       CLOUDY    53  35  50 NE3       29.82S
6HR MIN TEMP:  51; 6HR MAX TEMP:  56;

PRAIRIE DU CHI CLOUDY    54  37  52 E6        29.81S
6HR MIN TEMP:  54; 6HR MAX TEMP:  59;

PLATTEVILLE    CLOUDY    51  37  58 E12       29.81F
6HR MIN TEMP:  50; 6HR MAX TEMP:  55;

$$

WIZ056-057-062-063-064-067-068-191300-
SOUTH CENTRAL WISCONSIN

CITY           SKY/WX    TMP DP  RH WIND       PRES   REMARKS
REEDSBURG      PTCLDY    50  32  49 E6        29.84S
6HR MIN TEMP:  48; 6HR MAX TEMP:  51;

BARABOO/DELLS  PTCLDY    50  29  44 E9        29.85F
6HR MIN TEMP:  46; 6HR MAX TEMP:  50;

LONE ROCK      MOCLDY    52  32  46 E9        29.84R
6HR MIN TEMP:  50; 6HR MAX TEMP:  53;

MINERAL POINT  MOCLDY    52  32  46 E12       29.82S
MADISON        MOCLDY    50  30  46 SE12      29.85F
6HR MIN TEMP:  49; 6HR MAX TEMP:  51;

MIDDLETON      PTCLDY    51  31  47 E7        29.85F
6HR MIN TEMP:  50; 6HR MAX TEMP:  53;

WATERTOWN      PTCLDY    47  31  53 E10G18    29.87F
6HR MIN TEMP:  46; 6HR MAX TEMP:  52;

MONROE         PTCLDY    48  32  53 E7        29.83S
JANESVILLE     CLEAR     50  30  46 E9        29.85F
$$

WIZ051-052-058>065-066-070>072-191300-
SOUTHEAST WISCONSIN

CITY           SKY/WX    TMP DP  RH WIND       PRES   REMARKS
MILWAUKEE      MOCLDY    43  32  65 E7        29.93F
6HR MIN TEMP:  42; 6HR MAX TEMP:  48;

WAUKESHA       MOCLDY    43  28  56 E8        29.93F
MILWAUKEE/TIMM PTCLDY    43  30  61 E7        29.94F
RACINE         PTCLDY    44  32  62 E7        29.93F
6HR MIN TEMP:  43; 6HR MAX TEMP:  47;

BURLINGTON     PTCLDY    46  30  54 E9        29.89F
6HR MIN TEMP:  45; 6HR MAX TEMP:  49;

KENOSHA        CLEAR     44  33  65 E10       29.90F
6HR MIN TEMP:  43; 6HR MAX TEMP:  50;

FOND DU LAC    CLOUDY    48  29  47 SE14G21   29.90F
6HR MIN TEMP:  48; 6HR MAX TEMP:  52;

SHEBOYGAN      CLOUDY    44  31  60 SE5       29.96F
6HR MIN TEMP:  38; 6HR MAX TEMP:  46;

WEST BEND      MOCLDY    43  30  61 E9        29.93F
JUNEAU         PTCLDY    46  30  54 E15G22    29.89F
6HR MIN TEMP:  46; 6HR MAX TEMP:  51;

$$

LSZ147-162-191300-
LAKE SUPERIOR

STATION/POSITION TIME  TEMP    WIND        PRES    WAVE
                       AIR SEA DIR/SP/G            HT/PER
                 (UTC) (F)     (DEG/KT/KT) (MB)    (FT/S)
DEVILS ISLAND    1200   39      70/ 16/ 18 1011.0F
PORT WING        1140   38      20/ 12/ 16 1010.2F
SAXON HARBOR     1200   42      CALM  /  5 1009.8F
$$

LMZ867-665-643>646-191300-
LAKE MICHIGAN

STATION/POSITION TIME  TEMP    WIND        PRES    WAVE
                       AIR SEA DIR/SP/G            HT/PER



USA.gov is the U.S. government's official web portal to all federal, state and local government web resources and services.